FW0288 Weather Reports


time (UTC)temp
C
wind
direction
speed
KPH
gust
KPH
rain 1hr
cm
rain 24hr
cm
rain mn
cm
humidity
%
barometer
mb
20220930164528 20 40 3.2 12.9 0.00 0.00 0.00 42 1006.7
20220930163019 22 26 1.6 12.9 0.00 0.00 0.00 38 1006.6
20220930161519 22 35 3.2 6.4 0.00 0.00 0.00 40 1006.5
20220930160016 22 33 0.0 6.4 0.00 0.00 0.00 38 1006.7
20220930154509 20 57 4.8 9.7 0.00 0.00 0.00 47 1006.6
20220930153006 20 33 3.2 8.0 0.00 0.00 0.00 48 1006.6
20220930151503 21 355 3.2 8.0 0.00 0.00 0.00 43 1006.5
20220930150124 20 76 3.2 6.4 0.00 0.00 0.00 46 1006.4
20220930144602 19 80 0.0 4.8 0.00 0.00 0.00 49 1006.5
20220930143052 20 110 0.0 6.4 0.00 0.00 0.00 51 1006.4
20220930141558 18 210 0.0 1.6 0.00 0.00 0.00 51 1006.3
20220930140050 16 210 0.0 3.2 0.00 0.00 0.00 55 1006.4
20220930134542 15 210 0.0 4.8 0.00 0.00 0.00 54 1006.5
20220930133038 13 210 0.0 4.8 0.00 0.00 0.00 58 1006.6
20220930131535 12 210 0.0 3.2 0.00 0.00 0.00 60 1006.5
20220930130030 11 208 0.0 3.2 0.00 0.00 0.00 62 1006.5
20220930124530 11 223 3.2 6.4 0.00 0.00 0.00 63 1006.5
20220930123033 11 200 3.2 4.8 0.00 0.00 0.00 62 1006.5
20220930121525 12 200 0.0 3.2 0.00 0.00 0.00 61 1006.7
20220930120025 12 200 1.6 4.8 0.00 0.00 0.00 60 1006.6
20220930114531 12 240 0.0 3.2 0.00 0.00 0.00 59 1006.6
20220930113030 12 240 0.0 1.6 0.00 0.00 0.00 61 1006.8
20220930111521 12 240 0.0 0.0 0.00 0.00 0.00 59 1006.9
20220930110031 12 240 1.6 4.8 0.00 0.00 0.00 58 1007.0
20220930104520 12 240 0.0 0.0 0.00 0.00 0.00 56 1006.9
20220930103020 13 240 0.0 1.6 0.00 0.00 0.00 52 1006.9
20220930101520 13 240 0.0 6.4 0.00 0.00 0.00 50 1007.0
20220930100019 12 248 1.6 4.8 0.00 0.00 0.00 59 1006.9
20220930094517 12 260 0.0 4.8 0.00 0.00 0.00 58 1006.6
20220930093028 12 260 0.0 0.0 0.00 0.00 0.00 55 1006.7
20220930091515 13 260 0.0 3.2 0.00 0.00 0.00 56 1006.7
20220930090016 13 263 1.6 4.8 0.00 0.00 0.00 55 1006.8
20220930084514 12 70 0.0 1.6 0.00 0.00 0.00 57 1006.8
20220930083011 12 69 0.0 1.6 0.00 0.00 0.00 57 1007.0
20220930081510 12 69 0.0 3.2 0.00 0.00 0.00 57 1007.1
20220930080010 12 72 0.0 6.4 0.00 0.00 0.00 58 1007.1
20220930074507 13 254 0.0 1.6 0.00 0.00 0.00 54 1007.2
20220930073011 14 254 0.0 3.2 0.00 0.00 0.00 52 1007.1
20220930071500 14 254 1.6 4.8 0.00 0.00 0.00 50 1007.0
20220930070104 15 252 3.2 8.0 0.00 0.00 0.00 49 1007.1
20220930064600 15 227 3.2 6.4 0.00 0.00 0.00 49 1007.2
20220930063056 15 226 1.6 3.2 0.00 0.00 0.00 49 1007.3
20220930061601 15 254 1.6 4.8 0.00 0.00 0.00 49 1007.4
20220930060110 15 195 1.6 6.4 0.00 0.00 0.00 49 1007.6
20220930054601 15 215 3.2 8.0 0.00 0.00 0.00 49 1007.7
20220930053050 16 231 1.6 4.8 0.00 0.00 0.00 48 1007.9
20220930051549 16 232 0.0 3.2 0.00 0.00 0.00 48 1007.9
20220930050050 16 232 0.0 4.8 0.00 0.00 0.00 48 1007.9
20220930044556 17 232 0.0 4.8 0.00 0.00 0.00 47 1007.8
20220930043048 18 230 1.6 4.8 0.00 0.00 0.00 45 1007.9
20220930041549 20 132 3.2 8.0 0.00 0.00 0.00 43 1008.0
20220930040047 19 136 3.2 19.3 0.00 0.00 0.00 44 1008.1
20220930034547 18 136 4.8 9.7 0.00 0.00 0.00 47 1008.1
20220930033111 18 98 1.6 6.4 0.00 0.00 0.00 45 1008.3
20220930031549 19 117 0.0 9.7 0.00 0.00 0.00 45 1008.3
20220930030048 20 173 1.6 6.4 0.00 0.00 0.00 41 1008.3
20220930024547 20 168 6.4 11.3 0.00 0.00 0.00 39 1008.3
20220930023110 20 183 4.8 8.0 0.00 0.00 0.00 40 1008.0
20220930021542 20 222 1.6 6.4 0.00 0.00 0.00 43 1007.7
20220930020050 21 234 4.8 17.7 0.00 0.00 0.00 38 1007.6
20220930014556 20 254 4.8 14.5 0.00 0.00 0.00 41 1007.4
20220930013040 20 239 3.2 8.0 0.00 0.00 0.00 44 1007.4
20220930011543 20 258 1.6 11.3 0.00 0.00 0.00 42 1007.5
20220930010039 20 245 0.0 12.9 0.00 0.00 0.00 42 1007.5
20220930004538 21 246 0.0 0.0 0.00 0.00 0.00 39 1007.5
20220930003038 22 245 0.0 0.0 0.00 0.00 0.00 36 1007.5
20220930001537 21 255 0.0 12.9 0.00 0.00 0.00 35 1007.6
20220930000039 21 271 6.4 30.6 0.00 0.00 0.00 42 1007.8
20220929234550 22 312 12.9 24.1 0.00 0.00 0.00 36 1007.9
20220929233035 23 279 3.2 12.9 0.00 0.00 0.00 33 1007.6
20220929231609 23 255 0.0 6.4 0.00 0.00 0.00 33 1007.2
20220929230034 24 225 1.6 6.4 0.00 0.00 0.00 33 1007.2
20220929224533 25 144 0.0 4.8 0.00 0.00 0.00 27 1007.4
20220929223036 25 141 1.6 4.8 0.00 0.00 0.00 27 1007.6
20220929221541 25 137 0.0 6.4 0.00 0.00 0.00 28 1007.3
20220929220050 25 188 0.0 14.5 0.00 0.00 0.00 28 1007.2
20220929214553 25 144 4.8 16.1 0.00 0.00 0.00 29 1007.3
20220929213132 25 123 4.8 14.5 0.00 0.00 0.00 27 1007.3
20220929211532 25 133 6.4 19.3 0.00 0.00 0.00 30 1007.4
20220929210028 24 152 6.4 20.9 0.00 0.00 0.00 33 1007.4
20220929204525 23 134 9.7 17.7 0.00 0.00 0.00 33 1007.6
20220929203037 23 146 0.0 3.2 0.00 0.00 0.00 32 1007.9
20220929201539 23 134 0.0 0.0 0.00 0.00 0.00 32 1008.0
20220929200032 23 105 0.0 0.0 0.00 0.00 0.00 31 1008.2
20220929194517 23 176 3.2 16.1 0.00 0.00 0.00 34 1008.6
20220929193017 23 101 6.4 24.1 0.00 0.00 0.00 31 1008.9
20220929191519 25 58 1.6 3.2 0.00 0.00 0.00 30 1008.9
20220929190013 25 58 3.2 6.4 0.00 0.00 0.00 32 1009.0
20220929184511 25 53 3.2 6.4 0.00 0.00 0.00 33 1009.1
20220929183019 25 10 1.6 8.0 0.00 0.00 0.00 31 1009.3
20220929181508 25 360 0.0 8.0 0.00 0.00 0.00 30 1009.7
20220929180006 26 5 0.0 8.0 0.00 0.00 0.00 31 1009.9
20220929174503 26 278 0.0 4.8 0.00 0.00 0.00 26 1010.3
20220929173001 26 350 3.2 8.0 0.00 0.00 0.00 27 1010.4
20220929171649 27 327 4.8 12.9 0.00 0.00 0.00 27 1010.6
20220929170104 27 10 1.6 6.4 0.00 0.00 0.00 26 1010.9